Observations
| Time | Sensor | AQI | SAQ | Temp °C | Hum % | Pres Pa | CO μg/m³ | H₂S μg/m³ | NO μg/m³ | NO₂ μg/m³ | O₃ μg/m³ | SO₂ μg/m³ | CO₂e PPM | VOC PPM | PM1 μg/m³ | PM2.5 μg/m³ | PM4 μg/m³ | PM10 μg/m³ | TPS µm |
|---|---|---|---|---|---|---|---|---|---|---|---|---|---|---|---|---|---|---|---|
| Wednesday 12 August 2026 | |||||||||||||||||||
| 08:27 | Trim Market St | 2 | 20.2 | 71 | 40,474 | 0 | 0 | 1.11 | 35.28 | 55.89 | 0 | 5.7 | 6.39 | 10.01 | |||||
| 08:26 | Trim Patrick St | 2 | 20.5 | 72 | 38,430 | 0 | 11.73 | 1.14 | 41.63 | 53.86 | 0 | 8.86 | 13.6 | 14.96 | |||||
| 08:26 | Trim Market St | 2 | 20.2 | 71 | 41,858 | 0 | 1.71 | 1.12 | 53.08 | 40.12 | 0 | 4.99 | 5.91 | 10.63 | |||||
| 08:25 | Trim Patrick St | 2 | 20.5 | 72 | 38,420 | 0 | 12.36 | 1.18 | 37.45 | 55.94 | 0.1 | 8.86 | 12.87 | 14.16 | |||||
| 08:25 | Trim Market St | 2 | 20.2 | 71 | 43,471 | 0 | 1.36 | 1.1 | 35.51 | 57.07 | 0 | 4.99 | 5.93 | 8.77 | |||||
| 08:24 | Trim Patrick St | 2 | 20.6 | 72 | 38,406 | 0 | 12.36 | 1.12 | 49.85 | 49.22 | 0 | 9.71 | 14.33 | 15.76 | |||||
| 08:24 | Trim Market St | 2 | 20.3 | 71 | 45,099 | 0 | 1.02 | 1.09 | 46.98 | 48.89 | 0 | 5.7 | 7.88 | 11.27 | |||||
| 08:23 | Trim Patrick St | 2 | 20.6 | 71 | 38,388 | 0 | 11.26 | 1.09 | 40.48 | 58.54 | 0 | 9.71 | 13.68 | 15.05 | |||||
| 08:23 | Trim Market St | 2 | 20.2 | 70 | 46,630 | 0 | 0 | 1.09 | 38.12 | 54.72 | 0 | 6.41 | 7.4 | 10.65 | |||||
| 08:22 | Trim Patrick St | 2 | 20.6 | 72 | 38,365 | 0 | 11.36 | 1.16 | 35.03 | 52.6 | 0.41 | 8.86 | 13.64 | 15 | |||||
| 08:22 | Trim Market St | 2 | 20.3 | 70 | 48,107 | 0 | 0 | 1.09 | 34.44 | 56.24 | 0 | 5.7 | 5.96 | 8.78 | |||||
| 08:21 | Trim Patrick St | 2 | 20.7 | 72 | 38,332 | 0 | 11.25 | 1.1 | 34.63 | 61.72 | 0.07 | 8.86 | 12.21 | 13.43 | |||||
| 08:21 | Trim Market St | 2 | 20.3 | 70 | 49,365 | 0 | 0 | 1.09 | 40.25 | 53.38 | 0 | 5.7 | 6.46 | 9.41 | |||||
| 08:20 | Trim Patrick St | 2 | 20.7 | 71 | 38,289 | 0 | 12.86 | 1.09 | 36.45 | 60.19 | 1.17 | 9.71 | 14.43 | 15.87 | |||||
| 08:20 | Trim Market St | 2 | 20.4 | 70 | 50,448 | 0 | 0 | 1.1 | 29.75 | 58.63 | 0 | 4.28 | 5.5 | 8.79 | |||||
| 08:19 | Trim Patrick St | 2 | 20.7 | 71 | 38,233 | 0 | 9.41 | 1.1 | 24.58 | 49.51 | 0 | 8 | 12.25 | 13.48 | |||||
| 08:19 | Trim Market St | 2 | 20.4 | 70 | 51,281 | 0 | 0 | 1.12 | 40.29 | 51.35 | 0 | 3.56 | 5.51 | 8.16 | |||||
| 08:18 | Trim Patrick St | 2 | 20.7 | 71 | 38,156 | 0 | 11.97 | 1.1 | 33.25 | 62.5 | 0.05 | 9.71 | 15.12 | 16.63 | |||||
| 08:18 | Trim Market St | 2 | 20.5 | 69 | 52,205 | 0 | 0 | 1.1 | 50.2 | 38.71 | 0 | 4.99 | 6.99 | 10.06 | |||||
| 08:17 | Trim Patrick St | 2 | 20.8 | 71 | 38,055 | 0 | 11.73 | 1.07 | 25.78 | 55.22 | 1.18 | 8 | 13.02 | 14.32 | |||||